Wind_Speed
30 27 25 22 20 16 14 13 17 12 11 15 15 15 15 14 12 14 10 8 6 7 5 4 3 3 2 1 2 4 5 4 2 3 9 16 11 18 19 16 17 15 16
31 29 27 23 21 20 17 14 13 13 11 17 16 17 16 15 14 13 11 8 7 7 6 6 7 5 4 3 4 3 3 5 6 8 9 13 9 17 17 20 19 19 20
31 29 28 26 23 21 20 16 14 12 9 13 14 15 13 15 14 13 11 8 8 6 7 8 10 8 9 6 3 2 3 3 4 6 9 12 12 15 15 16 18 21 18
28 31 31 26 22 21 20 20 20 17 13 10 13 14 14 15 15 14 13 12 11 8 7 7 7 5 4 5 4 4 5 6 6 6 7 9 11 13 14 19 22 20 16
26 23 26 21 20 17 16 22 22 18 17 11 12 13 13 14 15 16 14 15 14 11 8 3 5 7 8 6 3 3 4 6 7 7 7 9 9 16 17 16 17 18 9
17 22 12 11 7 19 17 19 18 14 19 15 13 12 12 13 17 15 13 14 14 10 10 6 1 0 4 5 3 0 1 2 1 2 4 8 11 12 12 13 16 13 7
19 13 13 11 10 16 18 14 14 15 15 13 13 12 9 7 6 10 14 14 11 10 10 8 5 4 5 7 7 5 4 5 5 4 7 8 10 11 10 9 11 12 8
25 27 19 16 15 13 8 6 8 14 18 18 17 12 6 3 6 6 12 15 13 9 8 8 7 8 8 7 7 6 7 8 6 6 11 18 17 14 13 11 12 9 9
27 23 20 18 16 11 8 5 11 18 22 21 16 12 9 6 4 5 13 17 16 14 13 12 11 11 10 9 9 11 12 13 15 25 20 21 21 19 16 12 19 16 6
24 20 17 17 16 16 17 20 20 15 20 22 22 17 15 12 9 15 19 21 21 19 15 14 12 11 8 7 7 10 16 19 22 20 19 19 20 21 21 22 20 18 10
22 21 18 16 16 15 14 13 16 19 19 18 17 13 13 14 15 17 19 21 21 18 15 13 11 8 7 7 8 10 15 14 15 16 17 17 17 19 20 21 22 20 15
18 19 18 16 18 15 14 14 16 20 23 23 23 19 15 15 15 15 13 14 15 14 14 14 15 11 14 13 15 13 12 11 12 14 15 18 19 18 17 17 17 20 19
16 17 17 16 17 16 17 17 17 17 19 19 19 18 14 12 12 13 15 14 13 11 11 14 15 14 15 15 13 11 11 12 13 17 19 18 18 16 15 16 15 12 12
21 19 18 19 17 16 14 13 13 13 16 17 15 14 12 8 8 8 10 9 13 17 19 19 17 15 14 14 14 15 16 17 17 19 19 18 16 18 22 22 24 23 20
20 18 17 17 17 18 17 14 11 10 13 16 13 13 11 9 7 8 9 11 16 18 20 20 19 17 18 17 19 18 18 18 20 18 18 19 20 21 22 22 24 24 22
16 15 14 15 15 14 15 16 12 14 14 14 12 7 6 5 7 9 13 13 19 21 18 19 21 20 20 19 19 19 18 18 16 17 18 19 20 20 20 22 23 23 22
8 10 10 10 11 14 13 14 17 10 10 9 7 6 3 7 10 9 13 16 17 17 20 20 20 18 18 18 16 16 18 15 13 17 18 20 19 19 21 22 22 23 21
9 12 10 9 8 6 8 10 13 17 14 11 7 5 9 7 10 10 8 16 20 18 20 20 18 16 13 14 14 15 15 13 15 16 18 17 18 18 20 21 20 20 19
6 5 6 15 10 7 6 7 10 10 9 11 15 16 15 14 12 8 12 16 20 19 19 17 14 11 13 14 13 14 12 12 13 15 15 16 16 17 18 18 19 18 18
4 5 4 8 16 12 10 8 10 9 12 14 12 13 15 15 13 12 14 15 17 17 14 12 11 10 11 11 12 9 9 10 12 14 14 14 15 15 16 16 17 19 20
4 5 6 8 11 10 13 13 19 16 13 14 13 11 12 14 15 13 15 16 14 14 11 9 9 9 8 8 7 5 5 7 9 12 13 12 13 14 14 14 15 16 15
7 5 5 5 5 5 5 6 7 19 18 16 15 14 13 12 10 14 14 15 13 10 8 8 9 8 6 7 7 6 5 4 4 7 11 11 11 10 11 12 13 15 18
9 8 7 8 8 7 7 5 5 8 12 17 17 18 16 14 13 17 19 16 13 11 8 8 10 9 7 4 3 3 3 3 5 6 8 10 11 10 11 11 12 14 16
15 9 12 12 10 11 9 10 11 9 6 11 18 20 19 17 20 18 20 18 15 13 10 10 9 9 8 6 4 1 2 2 3 4 6 8 10 10 10 10 10 13 17
19 15 11 17 17 13 16 12 15 15 14 10 9 19 21 19 19 21 23 21 18 17 15 15 14 14 13 12 10 6 3 4 4 6 8 9 11 11 10 11 11 15 18
18 20 17 9 14 20 20 18 18 17 18 16 16 14 17 20 22 22 25 26 24 22 20 19 19 19 18 17 14 12 11 10 8 9 11 11 12 13 11 11 12 15 17
Wind_Direction
198 201 202 200 205 206 217 219 198 198 194 192 205 208 213 218 224 211 222 226 231 229 241 233 222 262 294 141 74 52 57 42 297 329 344 8 26 20 18 15 11 7 2
204 204 203 203 205 209 207 212 214 213 206 211 221 213 223 214 215 222 221 225 221 211 226 241 243 265 281 278 310 338 351 23 9 339 346 12 18 2 1 355 1 3 3
206 205 208 207 208 211 214 215 220 223 223 198 199 211 211 223 222 217 215 230 218 228 233 249 249 255 253 241 273 311 341 347 12 356 338 345 355 357 354 356 358 360 20
207 212 212 211 213 217 219 220 222 224 222 220 221 221 222 222 231 228 228 225 217 224 225 225 244 245 248 235 270 293 315 320 329 330 341 342 349 359 357 1 4 15 28
205 206 211 209 214 223 230 232 226 226 221 217 214 220 224 222 230 230 225 219 213 190 186 151 174 208 233 253 258 299 330 353 356 342 355 355 359 359 3 5 8 7 33
194 189 179 192 228 236 241 230 228 223 221 212 213 215 217 221 232 230 211 196 190 183 194 187 110 102 210 201 137 115 298 315 342 27 12 2 348 353 359 2 8 0 355
181 191 227 218 238 269 252 249 250 234 212 212 190 181 191 224 229 213 199 196 191 170 186 185 157 129 128 129 137 144 90 78 87 40 359 1 340 346 341 17 27 22 16
195 209 213 208 216 224 217 237 248 226 203 175 164 162 156 229 225 209 203 193 192 181 164 143 134 121 116 127 138 126 84 63 61 61 71 81 73 62 60 57 53 38 34
176 185 176 171 153 148 147 157 168 166 164 157 151 160 195 234 267 247 200 177 165 147 136 125 121 115 113 114 117 104 86 78 96 100 89 85 79 69 62 45 44 34 16
162 154 158 158 160 153 129 119 112 113 114 123 117 122 128 136 164 207 175 163 144 133 126 119 113 110 110 104 97 94 95 99 113 107 97 83 71 63 55 55 46 46 32
141 147 152 157 162 164 153 151 146 139 134 128 124 116 109 115 138 156 158 148 138 132 121 111 107 108 101 93 88 105 108 112 109 97 84 73 64 54 50 53 55 55 62
138 134 138 142 153 161 154 151 148 145 137 134 130 123 115 120 125 128 148 158 148 142 124 117 112 122 115 111 105 109 113 107 91 83 70 58 52 47 44 48 57 60 60
129 127 138 141 140 146 151 150 145 145 142 138 134 126 120 118 120 139 140 140 146 144 130 131 125 118 110 100 98 98 90 82 78 71 64 60 52 46 39 37 42 59 35
120 116 120 125 132 135 139 143 147 146 149 143 138 127 119 116 134 132 141 148 140 126 125 132 128 118 103 92 78 75 76 75 76 81 74 61 54 47 41 35 34 29 19
112 112 114 116 117 116 108 100 117 127 147 161 163 153 142 131 138 159 161 154 154 146 137 130 120 107 96 92 89 83 80 78 75 68 62 59 54 46 42 37 33 32 34
133 134 127 126 120 116 114 106 99 100 104 116 137 162 149 133 132 137 133 138 142 140 134 121 112 109 102 99 92 86 79 80 75 68 62 55 49 46 40 34 33 31 25
159 159 160 168 158 162 152 147 136 128 132 125 123 144 151 150 137 141 141 139 144 148 128 121 115 112 110 106 98 89 86 76 66 61 57 51 46 43 40 36 30 27 19
204 201 192 185 177 180 193 190 177 169 162 143 140 129 126 134 133 134 140 150 134 132 132 129 125 121 112 104 98 97 91 76 66 61 56 49 45 40 36 33 28 22 15
112 127 209 217 208 199 175 181 180 181 168 163 157 159 153 156 140 141 152 151 138 136 136 130 126 117 111 106 105 107 93 78 65 58 51 45 40 36 36 28 20 16 12
128 85 91 174 195 195 194 182 178 175 171 169 162 156 158 152 141 129 152 153 143 138 138 129 126 121 117 116 115 111 96 79 70 53 43 38 33 29 28 21 21 17 12
187 131 130 142 145 166 191 213 217 202 193 181 173 160 156 165 163 159 155 163 161 159 155 147 147 137 125 125 115 96 75 72 74 51 38 30 21 19 15 16 20 20 7
215 209 187 180 177 182 184 186 167 211 209 207 199 179 179 188 203 196 181 176 174 171 172 176 162 153 133 125 105 112 90 89 70 23 14 10 7 6 10 16 20 8 2
222 241 241 223 225 230 239 225 186 177 202 207 204 199 204 205 192 194 193 192 190 186 177 172 170 168 163 134 109 60 25 39 25 4 356 358 352 350 354 1 358 350 345
216 234 230 233 243 234 247 256 246 236 234 221 219 219 219 217 204 204 202 201 203 199 193 187 188 186 190 190 196 227 254 307 308 315 322 345 350 343 341 337 335 337 336
223 228 237 235 238 236 232 236 231 240 247 241 237 235 231 224 222 213 209 212 212 208 208 207 206 207 212 216 229 231 250 242 285 292 298 312 334 337 331 325 325 327 329
227 228 233 246 239 239 241 244 242 241 243 249 242 238 233 231 226 220 216 215 215 217 220 218 218 218 217 227 243 250 254 263 258 273 279 290 314 323 318 315 309 317 327
Height
832 836 840 842 845 847 849 850 852 853 855 856 858 860 862 864 864 865 865 864 864 864 865 866 867 867 867 866 867 867 866 864 864 862 861 861 858 855 852 850 847 845 843
830 834 837 840 842 844 845 847 849 851 853 854 856 859 861 862 862 863 864 863 864 865 865 865 865 864 863 863 864 864 864 864 863 861 861 860 858 856 854 852 849 845 842
827 832 835 837 839 841 843 845 847 848 849 852 854 855 857 859 860 861 861 862 862 862 863 863 864 863 862 863 863 862 861 860 860 860 860 859 857 855 854 852 848 844 842
828 831 832 835 838 840 842 844 845 847 848 848 850 853 855 856 857 858 859 860 860 861 861 860 861 862 861 861 862 862 861 860 860 860 859 857 857 857 855 850 845 843 840
825 830 831 832 836 838 839 841 843 844 846 847 848 850 852 853 854 855 856 857 859 860 859 860 859 860 860 860 860 860 860 859 859 859 859 859 858 856 853 851 849 846 843
824 826 827 830 832 835 837 837 838 840 842 843 844 846 848 850 850 851 852 854 856 858 857 858 859 858 857 858 858 858 858 858 858 859 859 858 857 856 854 853 851 848 846
823 824 827 827 829 835 834 835 835 837 837 840 840 842 845 847 848 848 850 853 854 856 857 857 858 858 857 856 857 859 858 858 858 859 858 857 856 855 854 853 853 851 849
816 820 825 823 827 831 833 832 833 834 834 836 837 840 842 845 848 847 848 850 852 853 855 855 856 857 857 858 858 859 859 859 859 858 858 858 857 855 854 854 853 850 849
809 815 822 825 829 829 829 831 831 832 832 834 836 838 838 841 845 846 847 848 850 853 855 856 856 856 857 859 859 859 859 859 859 861 860 859 857 857 856 854 852 850 846
811 818 822 825 828 830 829 830 831 833 831 834 835 840 843 844 844 846 849 849 851 854 857 857 857 857 858 858 858 858 859 861 860 859 859 859 859 858 857 856 855 852 850
813 817 822 824 828 831 830 831 831 832 836 838 840 846 844 844 850 849 852 851 852 855 857 858 857 857 858 858 860 861 862 863 860 858 858 858 859 860 860 860 856 854 853
815 816 821 824 826 830 831 834 836 836 836 840 843 847 850 850 851 852 853 855 856 858 858 858 857 860 861 860 859 862 863 863 861 859 858 859 860 861 862 861 860 859 858
818 819 821 824 827 830 833 836 837 837 838 842 843 846 850 851 852 853 854 856 857 859 859 861 862 862 862 862 861 862 861 861 862 861 863 863 864 864 863 860 860 859 859
820 823 825 826 829 831 835 836 837 837 838 841 845 845 848 851 853 855 855 857 859 859 860 862 861 861 862 864 864 864 864 865 865 864 864 866 866 863 861 861 858 859 859
824 825 830 830 832 833 834 837 839 840 840 843 846 848 850 852 855 855 856 858 859 861 863 862 863 864 865 867 866 868 869 867 866 869 868 865 864 865 864 862 860 861 860
827 831 831 832 832 834 835 838 842 843 844 844 847 851 853 855 856 858 856 858 861 861 865 866 864 866 868 870 871 870 870 868 869 869 869 869 868 865 865 864 862 861 861
832 833 833 837 834 836 837 839 839 846 848 846 850 849 852 855 857 860 859 858 862 861 863 865 867 870 868 868 872 872 871 872 871 869 869 870 871 870 867 865 865 863 863
834 835 834 836 835 837 838 842 842 844 844 845 846 853 851 858 856 859 864 862 860 862 864 865 868 870 872 870 870 873 873 873 872 873 871 873 872 873 870 867 867 865 864
833 834 834 834 836 840 841 844 845 846 846 847 848 850 852 856 859 862 864 866 864 865 866 867 869 871 870 869 873 873 874 875 873 873 875 874 874 873 871 870 869 869 867
835 835 835 833 836 839 843 846 848 849 850 851 850 851 853 854 857 859 864 866 865 867 869 867 870 870 871 872 873 875 875 874 872 874 876 876 876 874 872 871 869 867 867
832 833 834 835 837 838 840 844 846 848 851 850 851 849 851 855 857 860 862 863 863 865 866 867 869 872 873 873 873 874 876 875 875 877 876 876 876 874 872 871 869 868 869
832 833 835 836 838 840 842 842 843 847 850 850 850 850 853 855 855 858 860 861 862 863 864 866 867 871 871 870 871 874 874 875 875 875 877 876 875 874 872 870 868 867 866
832 833 834 835 837 838 839 842 843 844 846 848 849 850 852 852 853 855 857 860 860 861 863 863 865 868 868 870 871 871 872 873 873 874 875 874 873 872 870 868 866 865 864
830 831 833 835 836 837 839 839 842 843 845 846 846 847 847 849 851 852 855 856 857 859 860 861 863 864 864 866 867 869 870 871 872 872 872 871 869 868 866 865 864 863 861
827 829 831 833 834 834 836 837 839 841 842 843 844 844 845 847 848 848 850 852 853 855 857 858 859 861 861 862 864 865 866 867 867 868 867 867 866 864 863 862 862 860 858
824 826 828 829 830 831 832 833 835 836 837 838 839 840 841 842 843 845 846 847 849 850 852 854 855 856 857 858 859 860 861 861 862 863 863 863 862 861 860 858 858 857 855